Tracking 29493 objects as of 8-Sep-2024
HD Live streaming from Space Station
objects crossing your sky now

STARLINK-2257

Track STARLINK-2257 now!
10-day predictions
STARLINK-2257 is classified as:


NORAD ID: 47787
Int'l Code: 2021-018A
Perigee: 553.2 km
Apogee: 555.6 km
Inclination: 53.1 °
Period: 95.6 minutes
Semi major axis: 6925 km
RCS: Unknown
Launch date: March 11, 2021
Source: United States (US)
Launch site: AIR FORCE EASTERN TEST RANGE (AFETR)
Your satellite tracking list
Your tracking list is empty




NASA's NSSDC Master Catalog

Two Line Element Set (TLE):
1 47787U 21018A   24251.87439871  .00003160  00000-0  23106-3 0  9991
2 47787  53.0539 190.8564 0001743 102.0539 258.0646 15.06386029194025
Source of the keplerian elements: AFSPC